Starlink 31144

operational
NORAD ID: 58682 Int'l Des: 2023-211 Owner: SPXS Country: US Constellation: starlink
LEOCIRCULAR

Über Starlink 31144

Beschreibung wird geladen...

Live-Position

3D-Globus wird geladen...

Nächste Überflüge

Höhenverlauf

Altitude vs Time

uPlot chart will show altitude changes over time

Zweizeiliger Elementsatz

1 58682U 23211R 25353.22613302 .00000830 00000-0 39684-4 0 9990
2 58682 43.0011 179.2695 0001210 272.8149 87.2564 15.27576655110166
Epoch: 19. Dez. 2025 • Age: 15 hours

Aktueller Status

Höhe 484.1 km
Geschwindigkeit 7.63 km/s
Subsatellitenpunkt 28.81°N, 70.88°W
Startdatum 29. Dez. 2023
Alter 1.9 years
Typ internet

Technische Details

Klassifizierung Payload
Masse 730.00 kg
Trockenmasse 700.00 kg
Gesamtmasse 730.00 kg
Länge 0.30 m
Durchmesser 4.10 m
Spannweite 29.00 m
Form Box + pan
Hersteller SPXS
Bus-Typ Starlink V2M
Phasenstatus In Orbit
Besitzer/Staat SPXS/US

Große Konstellationen

Loading constellations...